Pittsburgh, PA

2:20 AM EST on December 07, 2019 (GMT -0500)
Pittsburgh International

Weather History for KPIT - October, 2019

Change the Weather History Date:

Thursday, October 10, 2019

  Actual Average Record
Temperature  
Mean Temperature 58 °F 54 °F  
Max Temperature 72 °F 65 °F 88 °F (1949)
Min Temperature 45 °F 45 °F 30 °F (1972)
Degree Days  
Heating Degree Days 6 11  
Month to date heating degree days 54 95  
Since 1 July heating degree days 62 209  
Cooling Degree Days 0 0  
Month to date cooling degree days 37 6  
Year to date cooling degree days 934 734  
Growing Degree Days 8 (Base 50)    
Moisture  
Dew Point 45 °F    
Average Humidity 64    
Maximum Humidity 86    
Minimum Humidity 39    
Precipitation  
Precipitation 0.00 in 0.07 in 0.96 in (1936)
Month to date precipitation 1.94 0.74  
Year to date precipitation 42.03 30.56  
Sea Level Pressure  
Sea Level Pressure 30.22 in    
Wind  
Wind Speed 3 mph ()    
Max Wind Speed 9 mph    
Max Gust Speed 12 mph    
Visibility 10.0 miles    
Events      
T = Trace of Precipitation, MM = Missing Value Source: Averaged Metar Reports

Daily Weather History Graph

Daily Weather History Graph

Search for Another Location

Airport or City:

Astronomy

Oct. 10, 2019 Rise Set
Actual Time 7:26 AM EDT 6:48 PM EDT
Civil Twilight 6:59 AM EDT 7:16 PM EDT
Nautical Twilight 6:27 AM EDT 7:47 PM EDT
Astronomical Twilight 5:55 AM EDT 8:19 PM EDT
Moon 5:50 PM EDT (10/10) 4:07 AM EDT (10/10)
Length of Visible Light 12h 17m
Length of Day
11h 22m
Waxing Gibbous, 91% of the Moon is Illuminated
Oct 10
Waxing Gibbous
Oct 13
Full
Oct 21
Last Quarter
Oct 27
New
Nov 4
First Quarter

Hourly Weather History & Observations

Time (EDT) Temp. Windchill Dew Point Humidity Pressure Visibility Wind Dir Wind Speed Gust Speed Precip Events Conditions
12:51 AM 54.0 °F - 43.0 °F 66% 30.23 in 10.0 mi Calm Calm - N/A   Clear
1:51 AM 51.1 °F - 43.0 °F 74% 30.22 in 10.0 mi East 4.6 mph - N/A   Clear
2:51 AM 51.1 °F - 42.1 °F 71% 30.22 in 10.0 mi ESE 3.5 mph - N/A   Clear
3:51 AM 50.0 °F - 42.1 °F 74% 30.22 in 10.0 mi ENE 3.5 mph - N/A   Partly Cloudy
4:51 AM 48.0 °F - 42.1 °F 80% 30.23 in 10.0 mi East 3.5 mph - N/A   Partly Cloudy
5:51 AM 46.9 °F - 42.1 °F 83% 30.25 in 10.0 mi East 3.5 mph - N/A   Partly Cloudy
6:51 AM 46.0 °F 43.9 °F 42.1 °F 86% 30.26 in 10.0 mi East 4.6 mph - N/A   Clear
7:51 AM 46.0 °F 43.9 °F 42.1 °F 86% 30.27 in 10.0 mi East 4.6 mph - N/A   Scattered Clouds
8:51 AM 50.0 °F - 44.1 °F 80% 30.29 in 10.0 mi East 5.8 mph - N/A   Scattered Clouds
9:51 AM 55.0 °F - 45.0 °F 69% 30.29 in 10.0 mi SE 5.8 mph - N/A   Scattered Clouds
10:51 AM 57.9 °F - 46.0 °F 65% 30.27 in 10.0 mi SE 5.8 mph - N/A   Mostly Cloudy
11:51 AM 62.1 °F - 46.9 °F 58% 30.26 in 10.0 mi SE 4.6 mph - N/A   Mostly Cloudy
12:51 PM 66.0 °F - 46.9 °F 50% 30.25 in 10.0 mi ENE 5.8 mph - N/A   Scattered Clouds
1:51 PM 69.1 °F - 46.0 °F 44% 30.22 in 10.0 mi Variable 5.8 mph - N/A   Partly Cloudy
2:51 PM 71.1 °F - 46.9 °F 42% 30.19 in 10.0 mi ENE 5.8 mph - N/A   Scattered Clouds
3:51 PM 71.1 °F - 45.0 °F 39% 30.19 in 10.0 mi Calm Calm - N/A   Partly Cloudy
4:51 PM 72.0 °F - 46.0 °F 40% 30.19 in 10.0 mi East 5.8 mph - N/A   Scattered Clouds
5:51 PM 71.1 °F - 46.9 °F 42% 30.18 in 10.0 mi East 4.6 mph - N/A   Scattered Clouds
6:51 PM 66.9 °F - 48.0 °F 51% 30.17 in 10.0 mi ENE 5.8 mph - N/A   Partly Cloudy
7:51 PM 63.0 °F - 48.0 °F 58% 30.18 in 10.0 mi ENE 3.5 mph - N/A   Partly Cloudy
8:51 PM 61.0 °F - 46.9 °F 60% 30.19 in 10.0 mi Calm Calm - N/A   Partly Cloudy
9:51 PM 57.9 °F - 46.9 °F 67% 30.19 in 10.0 mi Calm Calm - N/A   Partly Cloudy
10:51 PM 59.0 °F - 46.9 °F 64% 30.18 in 10.0 mi Calm Calm - N/A   Clear
11:51 PM 55.9 °F - 48.0 °F 75% 30.18 in 10.0 mi East 3.5 mph - N/A   Partly Cloudy